Time,TemperatureF,DewpointF,PressureIn,WindDirection,WindDirectionDegrees,WindSpeedMPH,WindSpeedGustMPH,Humidity,HourlyPrecipIn,Conditions,Clouds,dailyrainin,SoftwareType,DateUTC
2013-01-20 00:10:00,5.2,-1.0,30.34,NW,307,18.0,21.0,75,0.00,,,0.00,weatherlink.com 1.10,2013-01-20 06:10:00,
2013-01-20 00:25:00,5.1,-2.0,30.34,NNE,25,12.0,20.0,74,0.00,,,0.00,weatherlink.com 1.10,2013-01-20 06:25:00,
2013-01-20 00:40:00,4.9,-2.0,30.34,NNW,333,10.0,21.0,73,0.00,,,0.00,weatherlink.com 1.10,2013-01-20 06:40:00,
2013-01-20 00:55:00,4.9,-2.0,30.36,NW,304,7.0,16.0,74,0.00,,,0.00,weatherlink.com 1.10,2013-01-20 06:55:00,
2013-01-20 01:10:00,4.8,-2.0,30.36,NW,326,15.0,16.0,75,0.00,,,0.00,weatherlink.com 1.10,2013-01-20 07:10:00,
2013-01-20 01:25:00,4.5,-2.0,30.36,North,2,13.0,18.0,74,0.00,,,0.00,weatherlink.com 1.10,2013-01-20 07:25:00,
2013-01-20 01:40:00,4.4,-2.0,30.36,North,349,16.0,17.0,74,0.00,,,0.00,weatherlink.com 1.10,2013-01-20 07:40:00,
2013-01-20 01:55:00,4.3,-2.0,30.36,NW,319,8.0,15.0,74,0.00,,,0.00,weatherlink.com 1.10,2013-01-20 07:55:00,
2013-01-20 02:10:00,4.0,-2.0,30.36,NW,312,8.0,15.0,75,0.00,,,0.00,weatherlink.com 1.10,2013-01-20 08:10:00,
2013-01-20 02:25:00,4.0,-2.0,30.37,NW,309,11.0,15.0,76,0.00,,,0.00,weatherlink.com 1.10,2013-01-20 08:25:00,
2013-01-20 02:41:00,4.0,-2.0,30.38,NNE,29,10.0,14.0,75,0.00,,,0.00,weatherlink.com 1.10,2013-01-20 08:41:00,
2013-01-20 02:56:00,3.6,-2.0,30.38,NW,318,8.0,13.0,76,0.00,,,0.00,weatherlink.com 1.10,2013-01-20 08:56:00,
2013-01-20 03:11:00,3.6,-3.0,30.38,NW,326,9.0,14.0,75,0.00,,,0.00,weatherlink.com 1.10,2013-01-20 09:11:00,
2013-01-20 03:26:00,3.5,-3.0,30.38,NNW,338,19.0,19.0,74,0.00,,,0.00,weatherlink.com 1.10,2013-01-20 09:26:00,
2013-01-20 03:41:00,3.5,-3.0,30.39,NW,320,7.0,14.0,75,0.00,,,0.00,weatherlink.com 1.10,2013-01-20 09:41:00,
2013-01-20 03:56:00,3.5,-3.0,30.39,NW,312,5.0,12.0,76,0.00,,,0.00,weatherlink.com 1.10,2013-01-20 09:56:00,
2013-01-20 04:11:00,3.3,-3.0,30.38,NNW,329,11.0,12.0,76,0.00,,,0.00,weatherlink.com 1.10,2013-01-20 10:11:00,
2013-01-20 04:26:00,3.3,-3.0,30.38,NW,309,15.0,15.0,75,0.00,,,0.00,weatherlink.com 1.10,2013-01-20 10:26:00,
2013-01-20 04:41:00,3.1,-3.0,30.38,NNW,346,10.0,12.0,76,0.00,,,0.00,weatherlink.com 1.10,2013-01-20 10:41:00,
2013-01-20 04:56:00,3.1,-3.0,30.37,NW,325,10.0,13.0,76,0.00,,,0.00,weatherlink.com 1.10,2013-01-20 10:56:00,
2013-01-20 05:11:00,2.9,-3.0,30.36,NW,326,8.0,13.0,76,0.00,,,0.00,weatherlink.com 1.10,2013-01-20 11:11:00,
2013-01-20 05:26:00,2.9,-3.0,30.37,NW,307,10.0,12.0,77,0.00,,,0.00,weatherlink.com 1.10,2013-01-20 11:26:00,
2013-01-20 05:41:00,2.9,-3.0,30.37,NW,319,6.0,11.0,75,0.00,,,0.00,weatherlink.com 1.10,2013-01-20 11:41:00,
2013-01-20 05:57:00,3.1,-3.0,30.38,NNW,331,4.0,11.0,75,0.00,,,0.00,weatherlink.com 1.10,2013-01-20 11:57:00,
2013-01-20 06:12:00,3.2,-3.0,30.38,NW,326,9.0,11.0,75,0.00,,,0.00,weatherlink.com 1.10,2013-01-20 12:12:00,
2013-01-20 06:27:00,3.3,-3.0,30.39,WNW,297,3.0,10.0,76,0.00,,,0.00,weatherlink.com 1.10,2013-01-20 12:27:00,
2013-01-20 06:42:00,3.5,-3.0,30.40,NW,326,7.0,9.0,76,0.00,,,0.00,weatherlink.com 1.10,2013-01-20 12:42:00,
2013-01-20 06:57:00,3.5,-3.0,30.40,NNW,331,11.0,14.0,76,0.00,,,0.00,weatherlink.com 1.10,2013-01-20 12:57:00,
2013-01-20 07:12:00,3.4,-3.0,30.41,NNE,27,9.0,17.0,75,0.00,,,0.00,weatherlink.com 1.10,2013-01-20 13:12:00,
2013-01-20 07:27:00,3.5,-3.0,30.41,NNW,328,9.0,12.0,75,0.00,,,0.00,weatherlink.com 1.10,2013-01-20 13:27:00,
2013-01-20 07:42:00,3.5,-2.0,30.41,North,349,9.0,11.0,78,0.00,,,0.00,weatherlink.com 1.10,2013-01-20 13:42:00,
2013-01-20 07:57:00,3.3,-2.0,30.42,NE,36,6.0,9.0,80,0.00,,,0.00,weatherlink.com 1.10,2013-01-20 13:57:00,
2013-01-20 08:12:00,3.5,-1.0,30.43,NW,326,7.0,10.0,82,0.00,,,0.00,weatherlink.com 1.10,2013-01-20 14:12:00,
2013-01-20 08:27:00,3.6,-1.0,30.43,NW,319,6.0,10.0,82,0.00,,,0.00,weatherlink.com 1.10,2013-01-20 14:27:00,
2013-01-20 08:42:00,3.6,0.0,30.43,NNW,329,7.0,9.0,83,0.00,,,0.00,weatherlink.com 1.10,2013-01-20 14:42:00,
2013-01-20 08:57:00,3.8,0.0,30.44,North,6,5.0,9.0,83,0.00,,,0.00,weatherlink.com 1.10,2013-01-20 14:57:00,
2013-01-20 09:13:00,3.9,0.0,30.45,NW,318,4.0,6.0,84,0.00,,,0.00,weatherlink.com 1.10,2013-01-20 15:13:00,
2013-01-20 09:28:00,4.2,0.0,30.44,NW,312,3.0,6.0,83,0.00,,,0.00,weatherlink.com 1.10,2013-01-20 15:28:00,
2013-01-20 09:43:00,4.6,1.0,30.45,NW,318,5.0,7.0,83,0.00,,,0.00,weatherlink.com 1.10,2013-01-20 15:43:00,
2013-01-20 09:58:00,5.0,1.0,30.45,NW,312,4.0,10.0,82,0.00,,,0.00,weatherlink.com 1.10,2013-01-20 15:58:00,
2013-01-20 10:13:00,5.1,1.0,30.47,NW,325,8.0,10.0,81,0.00,,,0.00,weatherlink.com 1.10,2013-01-20 16:13:00,
2013-01-20 10:28:00,5.4,1.0,30.49,NW,326,6.0,11.0,83,0.00,,,0.00,weatherlink.com 1.10,2013-01-20 16:28:00,
2013-01-20 10:43:00,5.7,1.0,30.49,NW,307,7.0,8.0,82,0.00,,,0.00,weatherlink.com 1.10,2013-01-20 16:43:00,
2013-01-20 10:58:00,5.9,2.0,30.49,West,264,4.0,8.0,83,0.00,,,0.00,weatherlink.com 1.10,2013-01-20 16:58:00,
2013-01-20 11:13:00,6.5,2.0,30.49,NNW,329,6.0,8.0,82,0.00,,,0.00,weatherlink.com 1.10,2013-01-20 17:13:00,
2013-01-20 11:28:00,6.8,2.0,30.49,North,351,10.0,10.0,82,0.00,,,0.00,weatherlink.com 1.10,2013-01-20 17:28:00,
2013-01-20 11:43:00,7.1,3.0,30.48,WNW,293,7.0,10.0,82,0.00,,,0.00,weatherlink.com 1.10,2013-01-20 17:43:00,
2013-01-20 11:58:00,7.5,3.0,30.47,NW,304,7.0,12.0,80,0.00,,,0.00,weatherlink.com 1.10,2013-01-20 17:58:00,
2013-01-20 12:13:00,7.7,3.0,30.47,WNW,292,10.0,14.0,81,0.00,,,0.00,weatherlink.com 1.10,2013-01-20 18:13:00,
2013-01-20 12:28:00,7.9,3.0,30.47,NW,312,10.0,15.0,79,0.00,,,0.00,weatherlink.com 1.10,2013-01-20 18:28:00,
2013-01-20 12:44:00,7.9,3.0,30.46,NW,307,13.0,15.0,79,0.00,,,0.00,weatherlink.com 1.10,2013-01-20 18:44:00,
2013-01-20 12:59:00,8.2,3.0,30.46,NNW,327,12.0,16.0,78,0.00,,,0.00,weatherlink.com 1.10,2013-01-20 18:59:00,
2013-01-20 13:14:00,8.1,3.0,30.46,WNW,288,13.0,17.0,78,0.00,,,0.00,weatherlink.com 1.10,2013-01-20 19:14:00,
2013-01-20 13:29:00,8.4,3.0,30.45,WNW,300,10.0,17.0,78,0.00,,,0.00,weatherlink.com 1.10,2013-01-20 19:29:00,
2013-01-20 13:44:00,8.5,3.0,30.45,NW,305,14.0,17.0,77,0.00,,,0.00,weatherlink.com 1.10,2013-01-20 19:44:00,
2013-01-20 13:59:00,8.9,3.0,30.44,WNW,297,12.0,15.0,78,0.00,,,0.00,weatherlink.com 1.10,2013-01-20 19:59:00,
2013-01-20 14:14:00,8.8,2.0,30.44,NW,304,18.0,19.0,75,0.00,,,0.00,weatherlink.com 1.10,2013-01-20 20:14:00,
2013-01-20 14:29:00,9.1,3.0,30.44,WNW,297,14.0,19.0,75,0.00,,,0.00,weatherlink.com 1.10,2013-01-20 20:29:00,
2013-01-20 14:44:00,9.1,3.0,30.44,WNW,297,14.0,16.0,77,0.00,,,0.00,weatherlink.com 1.10,2013-01-20 20:44:00,
2013-01-20 14:59:00,9.0,3.0,30.45,NW,305,8.0,16.0,76,0.00,,,0.00,weatherlink.com 1.10,2013-01-20 20:59:00,
2013-01-20 15:14:00,9.2,4.0,30.45,WNW,295,13.0,13.0,78,0.00,,,0.00,weatherlink.com 1.10,2013-01-20 21:14:00,
2013-01-20 15:29:00,9.1,4.0,30.45,West,278,11.0,15.0,78,0.00,,,0.00,weatherlink.com 1.10,2013-01-20 21:29:00,
2013-01-20 15:44:00,9.4,4.0,30.44,WNW,290,8.0,13.0,79,0.00,,,0.00,weatherlink.com 1.10,2013-01-20 21:44:00,
2013-01-20 16:00:00,9.3,3.0,30.44,NW,307,13.0,16.0,76,0.00,,,0.00,weatherlink.com 1.10,2013-01-20 22:00:00,
2013-01-20 16:15:00,8.6,3.0,30.45,WNW,288,11.0,17.0,76,0.00,,,0.00,weatherlink.com 1.10,2013-01-20 22:15:00,
2013-01-20 16:30:00,8.4,2.0,30.45,WNW,297,13.0,17.0,76,0.00,,,0.00,weatherlink.com 1.10,2013-01-20 22:30:00,
2013-01-20 16:45:00,7.9,2.0,30.44,NW,304,12.0,14.0,77,0.00,,,0.00,weatherlink.com 1.10,2013-01-20 22:45:00,
2013-01-20 17:00:00,7.3,2.0,30.44,WNW,300,10.0,14.0,78,0.00,,,0.00,weatherlink.com 1.10,2013-01-20 23:00:00,
2013-01-20 17:15:00,6.6,2.0,30.44,WNW,298,9.0,14.0,81,0.00,,,0.00,weatherlink.com 1.10,2013-01-20 23:15:00,
2013-01-20 17:30:00,6.4,2.0,30.44,WNW,298,11.0,14.0,81,0.00,,,0.00,weatherlink.com 1.10,2013-01-20 23:30:00,
2013-01-20 17:45:00,6.1,2.0,30.44,WNW,300,9.0,15.0,81,0.00,,,0.00,weatherlink.com 1.10,2013-01-20 23:45:00,
2013-01-20 18:00:00,6.2,2.0,30.44,WNW,300,12.0,16.0,81,0.00,,,0.00,weatherlink.com 1.10,2013-01-21 00:00:00,
2013-01-20 18:15:00,6.0,2.0,30.44,NW,304,12.0,16.0,82,0.00,,,0.00,weatherlink.com 1.10,2013-01-21 00:15:00,
2013-01-20 18:30:00,5.3,1.0,30.44,WNW,291,7.0,13.0,82,0.00,,,0.00,weatherlink.com 1.10,2013-01-21 00:30:00,
2013-01-20 18:45:00,5.1,1.0,30.44,WNW,291,5.0,8.0,83,0.00,,,0.00,weatherlink.com 1.10,2013-01-21 00:45:00,
2013-01-20 19:00:00,4.6,1.0,30.45,WNW,288,9.0,13.0,83,0.00,,,0.00,weatherlink.com 1.10,2013-01-21 01:00:00,
2013-01-20 19:15:00,4.5,1.0,30.45,WNW,290,11.0,17.0,84,0.00,,,0.00,weatherlink.com 1.10,2013-01-21 01:15:00,
2013-01-20 19:31:00,4.7,1.0,30.45,WNW,295,11.0,16.0,85,0.00,,,0.00,weatherlink.com 1.10,2013-01-21 01:31:00,
2013-01-20 19:46:00,4.8,2.0,30.45,WNW,302,8.0,14.0,86,0.00,,,0.00,weatherlink.com 1.10,2013-01-21 01:46:00,
2013-01-20 20:01:00,4.2,0.0,30.45,NW,307,14.0,18.0,83,0.00,,,0.00,weatherlink.com 1.10,2013-01-21 02:01:00,
2013-01-20 20:16:00,4.0,-2.0,30.45,NW,321,8.0,14.0,76,0.00,,,0.00,weatherlink.com 1.10,2013-01-21 02:16:00,
2013-01-20 20:31:00,3.4,-3.0,30.45,NW,304,7.0,13.0,76,0.00,,,0.00,weatherlink.com 1.10,2013-01-21 02:31:00,
2013-01-20 20:46:00,2.4,-3.0,30.44,WNW,301,4.0,10.0,77,0.00,,,0.00,weatherlink.com 1.10,2013-01-21 02:46:00,
2013-01-20 21:01:00,2.4,-4.0,30.44,NW,312,11.0,12.0,76,0.00,,,0.00,weatherlink.com 1.10,2013-01-21 03:01:00,
2013-01-20 21:46:00,2.3,-4.0,30.44,WNW,297,8.0,18.0,76,0.00,,,0.00,weatherlink.com 1.10,2013-01-21 03:46:00,
2013-01-20 22:16:00,2.0,-4.0,30.45,WNW,301,15.0,19.0,76,0.00,,,0.00,weatherlink.com 1.10,2013-01-21 04:16:00,
2013-01-20 22:32:00,1.8,-4.0,30.45,WNW,301,14.0,20.0,75,0.00,,,0.00,weatherlink.com 1.10,2013-01-21 04:32:00,
2013-01-20 22:47:00,1.5,-5.0,30.46,NW,314,12.0,27.0,74,0.00,,,0.00,weatherlink.com 1.10,2013-01-21 04:47:00,
2013-01-20 23:17:00,0.8,-5.0,30.46,NW,321,10.0,18.0,75,0.00,,,0.00,weatherlink.com 1.10,2013-01-21 05:17:00,
2013-01-20 23:32:00,0.4,-6.0,30.46,WNW,291,12.0,20.0,74,0.00,,,0.00,weatherlink.com 1.10,2013-01-21 05:32:00,
2013-01-20 23:47:00,0.1,-6.0,30.46,WNW,294,7.0,16.0,74,0.00,,,0.00,weatherlink.com 1.10,2013-01-21 05:47:00,